This demonstration page uses our WeatherBlox Daily Observations layout. Learn more.

Left ArrowRight Arrow

31.31129, -92.44514

Hourly Observations for December 27, 2019

Temp ( °F °C ) Dew Point ( °F °C ) Humidity (%) Winds ( mph kmh ) Pressure ( in mb ) Visibility ( mi km ) Precip ( " mm )
12:46 am 00:46 Cloudy 63 17.2 60 15.6 90 90 Calm 30.08 1019 10 16 0.00 0.00
12:53 am 00:53 Cloudy 62 16.7 60 15.6 93 93 Calm 30.09 1019 10 16 0.00 0.00
1:53 am 01:53 Cloudy 62 16.7 60 15.6 93 93 Calm 30.09 1019 8 13 0.04 1.02
2:03 am 02:03 Cloudy with Light Rain 62 16.7 61 16.1 96 96 Calm 30.08 1019 6 10 0.00 0.00
2:37 am 02:37 Cloudy with Mist and Fog 61 16.1 60 15.6 97 97 ENE 5 7 30.07 1018 6 10 0.01 0.25
2:53 am 02:53 Cloudy 64 17.8 61 16.1 90 90 Calm 30.08 1019 9 14 0.01 0.25
3:53 am 03:53 Cloudy with Light Rain 62 16.7 61 16.1 96 96 NNE 5 7 30.08 1019 7 11 0.00 0.00
4:13 am 04:13 Cloudy with Light Rain 62 16.7 61 16.1 96 96 Calm 30.07 1018 4 6 0.00 0.00
4:28 am 04:28 Cloudy with Light Rain 62 16.7 61 16.1 96 96 NNE 3 6 30.07 1018 3 5 0.01 0.25
4:37 am 04:37 Cloudy with Light Rain 62 16.7 61 16.1 96 96 Calm 30.08 1019 3 5 0.01 0.25
4:49 am 04:49 Cloudy with Heavy Rain 63 17 61 16 94 94 Calm 30.08 1019 2 3 0.04 1.02
4:50 am 04:50 Cloudy with Heavy Rain 62 16.7 61 16.1 96 96 Calm 30.09 1019 2 3 0.04 1.02
5:05 am 05:05 Cloudy with Light Rain 62 16.7 61 16.1 96 96 Calm 30.08 1019 3 4 0.02 0.51
5:12 am 05:12 Cloudy with Light Rain 62 16.7 61 16.1 96 96 Calm 30.08 1019 3 5 0.02 0.51
5:19 am 05:19 Cloudy with Rain 62 16.7 62 16.7 100 100 Calm 30.08 1019 2 3 0.03 0.76
5:31 am 05:31 Cloudy with Rain 62 16.7 62 16.7 100 100 E 3 6 30.09 1019 2 3 0.05 1.27
5:50 am 05:50 Cloudy with Light Rain 63 17 63 17 100 100 E 6 9 30.09 1019 3 4 0.07 1.78
5:53 am 05:53 Cloudy with Light Rain 62 16.7 62 16.7 100 100 E 6 9 30.10 1019 3 5 0.08 2.03
6:11 am 06:11 Cloudy with Heavy Rain 63 17.2 62 16.7 97 97 E 6 9 30.09 1019 3 4 0.03 0.76
6:15 am 06:15 Cloudy with Heavy Rain 63 17.2 62 16.7 97 97 E 5 7 30.09 1019 2 3 0.06 1.52
6:34 am 06:34 Cloudy with Light Rain 63 17.2 62 16.7 97 97 Calm 30.10 1019 3 5 0.16 4.06
6:51 am 06:51 Cloudy 63 17 63 17 100 100 ENE 5 7 30.09 1019 9 14 0.16 4.06
6:53 am 06:53 Cloudy 63 17.2 62 16.7 97 97 ENE 5 7 30.10 1019 9 14 0.16 4.06
7:50 am 07:50 Cloudy 63 17 63 17 100 100 E 5 7 30.11 1020 9 14 0.01 0.25
7:53 am 07:53 Cloudy 63 17.2 62 16.7 97 97 E 5 7 30.12 1020 9 14 0.01 0.25
8:02 am 08:02 Cloudy 63 17.2 62 16.7 97 97 E 3 6 30.11 1020 8 13 0.00 0.00
8:18 am 08:18 Cloudy 63 17.2 62 16.7 97 97 E 6 9 30.11 1020 8 13 0.00 0.00
8:53 am 08:53 Cloudy 64 17.8 62 16.7 93 93 E 8 13 30.12 1020 8 13 0.00 0.00
9:53 am 09:53 Cloudy 65 18.3 63 17.2 93 93 ESE 8 13 30.13 1020 9 14 0.00 0.00
10:25 am 10:25 Cloudy 65 18.3 63 17.2 93 93 ESE 7 11 30.13 1020 10 16 0.00 0.00
10:35 am 10:35 Cloudy 66 18.9 63 17.2 90 90 ESE 7 11 30.12 1020 10 16 0.00 0.00
10:53 am 10:53 Cloudy 66 18.9 63 17.2 90 90 ESE 6 9 30.12 1020 10 16 0.00 0.00
11:00 am 11:00 Cloudy 67 19.4 63 17.2 87 87 E 5 7 30.11 1020 10 16 0.00 0.00
11:14 am 11:14 Cloudy 67 19.4 63 17.2 87 87 ESE 7 11 30.11 1020 10 16 0.00 0.00
11:53 am 11:53 Cloudy 68 20 63 17.2 84 84 E 6 9 30.08 1019 10 16 0.00 0.00
12:35 pm 12:35 Cloudy 68 20 63 17.2 84 84 E 7 11 30.05 1018 10 16 0.00 0.00
12:53 pm 12:53 Cloudy 69 20.6 63 17.2 81 81 ESE 8 13 30.05 1018 10 16 0.00 0.00
1:43 pm 13:43 Cloudy 69 20.6 63 17.2 81 81 ESE 6 9 30.02 1017 10 16 0.00 0.00
1:53 pm 13:53 Cloudy 69 20.6 63 17.2 81 81 E 5 7 30.03 1017 10 16 0.00 0.00
2:32 pm 14:32 Cloudy 70 21.1 63 17.2 79 79 E 6 9 30.02 1017 10 16 0.00 0.00
2:50 pm 14:50 Cloudy 70 21 63 17 78 78 ESE 7 11 30.01 1016 10 16 0.00 0.00
2:53 pm 14:53 Cloudy 70 21.1 63 17.2 79 79 E 8 13 30.02 1017 10 16 0.00 0.00
3:53 pm 15:53 Cloudy 70 21.1 63 17.2 79 79 E 7 11 30.02 1017 10 16 0.00 0.00
4:53 pm 16:53 Cloudy 70 21.1 62 16.7 76 76 ENE 3 6 30.01 1016 10 16 0.00 0.00
5:24 pm 17:24 Cloudy 69 20.6 62 16.7 78 78 E 5 7 30.02 1017 10 16 0.00 0.00
5:53 pm 17:53 Cloudy with Light Rain 67 19.4 63 17.2 87 87 ESE 6 9 30.02 1017 7 11 0.01 0.25
6:27 pm 18:27 Mostly Cloudy 67 19.4 63 17.2 87 87 E 3 6 30.01 1016 10 16 0.00 0.00
6:53 pm 18:53 Cloudy 66 18.9 63 17.2 90 90 E 5 7 30.02 1017 10 16 0.00 0.00
7:53 pm 19:53 Cloudy 66 18.9 63 17.2 90 90 E 5 7 30.03 1017 10 16 0.00 0.00
8:18 pm 20:18 Mostly Cloudy 65 18.3 62 16.7 90 90 E 6 9 30.02 1017 10 16 0.00 0.00
8:53 pm 20:53 Mostly Cloudy 64 17.8 61 16.1 90 90 E 5 7 30.02 1017 10 16 0.00 0.00
9:10 pm 21:10 Mostly Cloudy 65 18.3 62 16.7 90 90 E 6 9 30.01 1016 10 16 0.00 0.00
9:53 pm 21:53 Cloudy 65 18.3 62 16.7 90 90 E 6 9 30.02 1017 10 16 0.00 0.00
10:53 pm 22:53 Cloudy 65 18.3 62 16.7 90 90 E 7 11 30.02 1017 10 16 0.00 0.00
11:21 pm 23:21 Cloudy 65 18.3 62 16.7 90 90 E 7 11 30.00 1016 10 16 0.00 0.00
11:53 pm 23:53 Cloudy 65 18.3 62 16.7 90 90 ESE 6 9 30.01 1016 10 16 0.00 0.00

Powered by AerisWeather